Weather Roundup
Issued by NWS

Home | Current Version | Previous Version | Text Only | Print | Product List | Glossary On
Versions: 1 2 3 4 5 6 7 8 9 10 11 12 13 14 15 16 17 18 19 20 21 22 23 24 25 26 27 28 29 30 31 32 33 34 35 36 37 38 39 40 41 42 43 44 45 46 47 48 49 50
797
NZUS93 KARX 292059
HRRWXR

CURRENT HOURLY OBSERVATIONS ACROSS
MUCH OF THE UPPER MISSISSIPPI VALLEY
NATIONAL WEATHER SERVICE LA CROSSE WI
400 PM CDT SUN MAY 29 2016


...SOUTHEAST MINNESOTA...


CITY           SKY/WX    TMP DP  RH WIND       PRES   REMARKS
ROCHESTER      MOSUNNY   76  62  62 W18       29.98F
ROCHESTER/MAYO MOCLDY    76  56  49 W15G22    29.97F
WINONA         PTSUNNY   73  61  64 NW9       29.96S
AUSTIN         MOSUNNY   75  55  50 W14G20    29.99F
ALBERT LEA     CLOUDY    75  55  50 W8G17     30.00S
DODGE CENTER   MOSUNNY   75  59  57 W16       29.99S
PRESTON        MOSUNNY   76  58  53 W17G24    29.99F
OWATONNA       MOSUNNY   75  57  53 W14G20    29.98S
FARIBAULT      NOT AVBL
$$

...ELSEWHERE IN MINNESOTA...


CITY           SKY/WX    TMP DP  RH WIND       PRES   REMARKS
MINNEAPOLIS    CLOUDY    78  56  46 NW15      29.95F
INTNL FALLS    CLOUDY    61  55  81 W12       29.88S
DULUTH         PTSUNNY   67  54  63 W17G29    29.89R
RED WING       MOSUNNY   77  55  47 NW10G16   29.94S
REDWOOD FALLS  PTSUNNY   76  55  48 NW9       29.97S
MANKATO        MOSUNNY   77  55  47 W17G23    29.98F
WORTHINGTON    NOT AVBL
FAIRMONT       MOSUNNY   79  54  41 W18       30.00S
$$

...SOUTHWEST WISCONSIN...


CITY           SKY/WX    TMP DP  RH WIND       PRES   REMARKS
LA CROSSE      PTSUNNY   81  56  42 W18       29.94F
PRAIRIE DU CHI MOSUNNY   79  54  42 W17G23    29.97F
BOSCOBEL       PTSUNNY   81  59  47 W12G18    29.97F
LONE ROCK      NOT AVBL
PLATTEVILLE    MOSUNNY   77  59  53 W15G21    30.00F
FORT MC COY    MOSUNNY   79  56  45 W14G21    29.95S
MAUSTON-NEW LI MOCLDY    77  57  50 W13G25    29.94S
VIROQUA        MOCLDY    69  61  75 W9        30.00R
WIS DELLS      CLOUDY    79  52  39 W18G24    29.95F
$$

...ELSEWHERE IN WISCONSIN...


CITY           SKY/WX    TMP DP  RH WIND       PRES   REMARKS
MILWAUKEE      PTSUNNY   80  57  45 W20G26    29.95S
MADISON        MOSUNNY   79  56  45 W12G18    29.95F
GREEN BAY      PTSUNNY   73  62  68 W18       29.89R
EAU CLAIRE     NOT AVBL
BLACK RVR FLS  FAIR      79  51  38 W20G26    29.94S
MEDFORD        PTSUNNY   69  59  71 W12G21    29.91S
WAUSAU         MOSUNNY   73  59  61 W21G31    29.89S
WIS RAPIDS     PTSUNNY   78  55  44 NW17G28   29.93S
MARSHFIELD     PTSUNNY   73  59  61 W16G24    29.92S
RICE LAKE      MOSUNNY   71  55  56 W14       29.95R
$$

...NORTHEAST IOWA...


CITY           SKY/WX    TMP DP  RH WIND       PRES   REMARKS
WATERLOO       MOSUNNY   81  56  42 W13G21    30.00F
DUBUQUE        MOSUNNY   76  58  53 W13       30.01F
DECORAH        MOSUNNY   75  61  60 W7        29.98F
MASON CITY     CLOUDY    69  60  73 W9        30.03F
CHARLES CITY   CLOUDY    73  55  53 W14G24    30.02S
OELWEIN        MOSUNNY   79  59  50 W16G26    30.01F
$$

...ELSEWHERE IN IOWA...


CITY           SKY/WX    TMP DP  RH WIND       PRES   REMARKS
DES MOINES     MOSUNNY   83  53  35 W9        30.03F
IOWA CITY      MOSUNNY   81  59  47 VRB7G16   30.04F
FORT DODGE     SUNNY     81  55  41 W10       30.03F
MARSHALLTOWN   MOSUNNY   80  59  48 W15G22    30.02F
CEDAR RAPIDS   MOSUNNY   77  59  53 W10G21    30.02F
$$

...NORTHERN ILLINOIS...


CITY           SKY/WX    TMP DP  RH WIND       PRES   REMARKS
CHICAGO-OHARE  MOSUNNY   78  60  53 W17G23    29.99F
CHICAGO-MIDWAY MOSUNNY   80  58  46 W13       30.00S
MOLINE         MOSUNNY   81  56  42 W14       30.02F
ROCKFORD       PTSUNNY   80  58  46 W16G23    30.02S
PEORIA         SUNNY     83  55  38 W10       30.04F
$$

NOTE: "FAIR" INDICATES FEW OR NO CLOUDS BELOW 12,000 FEET WITH NO
SIGNIFICANT WEATHER AND/OR OBSTRUCTIONS TO VISIBILITY. WIND
SPEEDS ARE IN MILES-PER-HOUR.




USA.gov is the U.S. government's official web portal to all federal, state and local government web resources and services.